Location: San Gennaro Vesuviano
(40.8833°N, 14.5333°E)
Time: 21:14:51
(UTC+00:00)

OBJECT-B - Pass Details

Date: 22 April 2021
Orbit: 415 x 424 km, 97.0° (Epoch: 25 April)

Event Time Altitude Azimuth Distance (km) Brightness Sun altitude
Exits shadow 19:53:28 - 222° (SW) 1,877 4.1 -21.4°
Reaches altitude 10° 19:55:00 10° 242° (WSW) 1,500 3.8 -21.6°
Maximum altitude 19:56:24 12° 268° (W) 1,370 3.9 -21.8°
Drops below altitude 10° 19:57:49 10° 294° (WNW) 1,509 4.6 -22.0°
Sets 20:00:50 0° 326° (NW) 2,383 5.9 -22.4°
